sat.trackr.live / text

‹ back to catalog

STARLINK-34885

NORAD 65328 · 2025-189F

PAYLOAD ACTIVE UNKNOWN

§ Identity

Operator
Country
US
Launch date
2025-08-27
Launch site
AFETR
Launch vehicle
Mass (kg)
RCS (m²)

Purposes: comms

External: N2YO · Heavens-Above · Gunter

§ Orbital elements

Epoch: 2026-05-25T04:39:57.728160Z

Period
94.01 min
Inclination
53.1577°
Eccentricity
0.0001142
Mean motion
15.31714914 rev/d
Perigee alt
469.9 km
Apogee alt
471.5 km
Semi-major
6,848.8 km
B*
5.9414e-4
RAAN
211.1295°
Arg perigee
95.9998°
Mean anomaly
264.1133°
Rev number
4,276

§ Raw data

STARLINK-348851 65328U 25189F   26145.19441815  .00018125  00000+0  59414-3 0  99922 65328  53.1577 211.1295 0001142  95.9998 264.1133 15.31714914 42767

JSON: /api/v1/satellites/65328 · /tle

For live sub-satellite position, see the globe view (requires WebGL).

§ Visibility from observer

Set your observer location to see the next 7 days of passes ≥ 10°. The values pass through the URL so the page stays shareable.

No JS? Fill the form by hand. The geolocation button needs JavaScript.